DW4080 Weather Reports


time (UTC)temp
C
wind
direction
speed
KPH
gust
KPH
rain 1hr
cm
rain 24hr
cm
rain mn
cm
humidity
%
barometer
mb
20260509011529 15 360 0.0 8.0 0.00 0.00 0.00 42 1005.9
20260509010028 15 360 0.0 0.0 0.00 0.00 0.00 61 1005.8
20260509004530 15 360 0.0 0.0 0.00 0.00 0.00 58 1005.6
20260509003027 16 286 0.0 6.4 0.00 0.00 0.00 56 1005.4
20260509001527 16 360 3.2 12.9 0.00 0.00 0.00 51 1005.4
20260509000104 17 360 1.6 6.4 0.00 0.00 0.00 48 1005.3
20260508234507 17 284 0.0 6.4 0.00 0.00 0.00 46 1005.3
20260508233026 17 360 1.6 8.0 0.00 0.00 0.00 42 1005.4
20260508231547 17 360 4.8 12.9 0.00 0.00 0.00 39 1005.4
20260508230100 17 5 8.0 16.1 0.00 0.00 0.00 38 1005.4
20260508224612 18 360 3.2 11.3 0.00 0.00 0.00 41 1005.4
20260508223017 18 313 4.8 9.7 0.00 0.00 0.00 39 1005.3
20260508221516 18 227 4.8 9.7 0.00 0.00 0.00 38 1005.5
20260508220042 18 360 4.8 12.9 0.00 0.00 0.00 40 1005.6
20260508214556 18 255 8.0 19.3 0.00 0.00 0.00 38 1005.5
20260508213117 18 360 3.2 8.0 0.00 0.00 0.00 42 1005.8
20260508211501 18 360 3.2 12.9 0.00 0.00 0.00 40 1005.9
20260508210026 18 336 3.2 8.0 0.00 0.00 0.00 41 1006.0
20260508204609 17 219 4.8 12.9 0.00 0.00 0.00 39 1006.1
20260508203011 18 360 6.4 14.5 0.00 0.00 0.00 39 1006.3
20260508201525 18 294 8.0 17.7 0.00 0.00 0.00 39 1006.5
20260508200029 18 341 6.4 17.7 0.00 0.00 0.00 39 1006.6
20260508194532 17 294 8.0 16.1 0.00 0.00 0.00 39 1006.9
20260508193059 16 5 3.2 12.9 0.00 0.00 0.00 42 1007.2
20260508191532 17 5 6.4 16.1 0.00 0.00 0.00 43 1007.4
20260508190035 17 266 4.8 16.1 0.00 0.00 0.00 41 1007.6
20260508184525 17 360 9.7 17.7 0.00 0.00 0.00 41 1007.9
20260508183024 16 323 6.4 14.5 0.00 0.00 0.00 39 1008.0
20260508181524 16 308 4.8 14.5 0.00 0.00 0.00 42 1008.3
20260508180026 16 360 3.2 12.9 0.00 0.00 0.00 44 1008.5
20260508173038 16 325 8.0 19.3 0.00 0.00 0.00 42 1008.7
20260508171615 16 323 6.4 16.1 0.00 0.00 0.00 40 1009.0
20260508170048 15 24 4.8 14.5 0.00 0.00 0.00 41 1009.4
20260508164558 15 360 3.2 16.1 0.00 0.00 0.00 42 1009.7
20260508163103 15 360 1.6 8.0 0.00 0.00 0.00 46 1009.8
20260508161501 15 294 4.8 11.3 0.00 0.00 0.00 46 1009.8
20260508160007 14 321 4.8 12.9 0.00 0.00 0.00 48 1010.0
20260508154528 15 309 3.2 9.7 0.00 0.00 0.00 47 1010.2
20260508153041 13 323 1.6 12.9 0.00 0.00 0.00 47 1010.1
20260508151547 13 308 3.2 6.4 0.00 0.00 0.00 50 1010.3
20260508150040 13 360 1.6 8.0 0.00 0.00 0.00 54 1010.3
20260508144547 12 360 0.0 4.8 0.00 0.00 0.00 58 1010.6
20260508143043 11 360 0.0 4.8 0.00 0.00 0.00 62 1010.6
20260508141544 11 29 0.0 1.6 0.00 0.00 0.00 67 1010.6
20260508140041 10 40 0.0 4.8 0.00 0.00 0.00 73 1011.0
20260508134611 9 360 0.0 1.6 0.00 0.00 0.00 77 1011.0
20260508133111 8 360 0.0 3.2 0.00 0.00 0.00 80 1011.0
20260508131603 8 360 1.6 6.4 0.00 0.00 0.00 82 1011.0
20260508130104 8 322 0.0 0.0 0.00 0.00 0.00 84 1011.2
20260508124603 7 360 0.0 3.2 0.00 0.00 0.00 88 1011.2
20260508123111 6 360 0.0 0.0 0.00 0.00 0.00 90 1011.0
20260508121608 6 360 0.0 0.0 0.00 0.00 0.00 91 1011.0
20260508120004 5 360 0.0 0.0 0.00 0.00 0.00 92 1010.7
20260508114518 3 360 0.0 0.0 0.00 0.00 0.00 91 1010.5
20260508113037 3 360 0.0 0.0 0.00 0.00 0.00 90 1010.5
20260508111556 3 360 0.0 0.0 0.00 0.00 0.00 90 1010.4
20260508110047 2 360 0.0 0.0 0.00 0.00 0.00 89 1010.2
20260508104548 2 360 0.0 0.0 0.00 0.00 0.00 89 1010.0
20260508103043 3 360 0.0 0.0 0.00 0.00 0.00 89 1010.0
20260508101547 3 360 0.0 0.0 0.00 0.00 0.00 88 1010.0
20260508100040 3 360 0.0 0.0 0.00 0.00 0.00 89 1010.0
20260508094539 3 360 0.0 0.0 0.00 0.00 0.00 89 1010.1
20260508093039 3 360 0.0 0.0 0.00 0.00 0.00 89 1010.0
20260508091604 3 360 0.0 0.0 0.00 0.00 0.00 88 1010.0
20260508090036 3 360 0.0 0.0 0.00 0.00 0.00 88 1010.1
20260508084534 4 360 0.0 0.0 0.00 0.00 0.00 88 1010.1
20260508083037 4 360 0.0 0.0 0.00 0.00 0.00 88 1010.1
20260508081532 4 360 0.0 0.0 0.00 0.00 0.00 88 1010.2
20260508080032 4 360 0.0 0.0 0.00 0.00 0.00 88 1010.3
20260508074531 4 360 0.0 0.0 0.00 0.00 0.00 88 1010.2
20260508073033 4 360 0.0 0.0 0.00 0.00 0.00 88 1010.5
20260508071532 4 360 0.0 0.0 0.00 0.00 0.00 88 1010.7
20260508070027 4 360 0.0 0.0 0.00 0.00 0.00 87 1010.8
20260508064532 4 360 0.0 0.0 0.00 0.00 0.00 87 1010.9
20260508063036 4 360 0.0 0.0 0.00 0.00 0.00 86 1010.9
20260508061526 5 360 0.0 0.0 0.00 0.00 0.00 86 1010.8
20260508060027 5 360 0.0 0.0 0.00 0.00 0.00 84 1010.7
20260508054518 5 360 0.0 0.0 0.00 0.00 0.00 84 1010.8
20260508053023 5 360 0.0 0.0 0.00 0.00 0.00 83 1010.7
20260508051519 6 360 0.0 0.0 0.00 0.00 0.00 83 1010.8
20260508050015 6 360 0.0 0.0 0.00 0.00 0.00 83 1010.7
20260508044511 6 360 0.0 0.0 0.00 0.00 0.00 82 1010.5
20260508043009 6 360 0.0 0.0 0.00 0.00 0.00 80 1010.6
20260508041510 6 360 0.0 0.0 0.00 0.00 0.00 79 1010.6
20260508040004 7 360 0.0 0.0 0.00 0.00 0.00 78 1010.6
20260508034503 7 360 0.0 0.0 0.00 0.00 0.00 77 1010.6
20260508033009 7 360 0.0 0.0 0.00 0.00 0.00 76 1010.6
20260508031503 7 360 0.0 0.0 0.00 0.00 0.00 76 1010.6
20260508030008 7 360 0.0 0.0 0.00 0.00 0.00 76 1010.8
20260508024503 7 360 0.0 0.0 0.00 0.00 0.00 75 1010.8
20260508023100 7 360 0.0 0.0 0.00 0.00 0.00 73 1010.7
20260508021601 8 360 0.0 0.0 0.00 0.00 0.00 72 1010.7
20260508020108 8 360 0.0 0.0 0.00 0.00 0.00 71 1010.7
20260508014559 8 360 0.0 0.0 0.00 0.00 0.00 69 1010.5
20260508013058 9 360 0.0 0.0 0.00 0.00 0.00 68 1010.3